Time,TemperatureF,DewpointF,PressureIn,WindDirection,WindDirectionDegrees,WindSpeedMPH,WindSpeedGustMPH,Humidity,HourlyPrecipIn,Conditions,Clouds,dailyrainin,SoftwareType,DateUTC
2013-08-23 00:05:00,65.4,61.4,30.04,West,267,1.0,2.0,87,0.00,,,0.00,Wunderground v.1.15,2013-08-23 04:05:00,
2013-08-23 00:10:00,65.1,61.1,30.04,West,267,1.0,1.0,87,0.00,,,0.00,Wunderground v.1.15,2013-08-23 04:10:00,
2013-08-23 00:15:00,65.0,61.4,30.04,West,267,1.0,2.0,88,0.00,,,0.00,Wunderground v.1.15,2013-08-23 04:15:00,
2013-08-23 00:20:00,65.0,61.4,30.04,West,267,1.0,1.0,88,0.00,,,0.00,Wunderground v.1.15,2013-08-23 04:20:00,
2013-08-23 00:25:00,64.8,60.8,30.04,West,267,1.0,1.0,87,0.00,,,0.00,Wunderground v.1.15,2013-08-23 04:25:00,
2013-08-23 00:30:00,64.6,60.6,30.04,West,267,1.0,2.0,87,0.00,,,0.00,Wunderground v.1.15,2013-08-23 04:30:00,
2013-08-23 00:35:00,64.3,60.7,30.04,West,267,1.0,2.0,88,0.00,,,0.00,Wunderground v.1.15,2013-08-23 04:35:00,
2013-08-23 00:45:00,64.1,60.5,30.05,West,267,1.0,2.0,88,0.00,,,0.00,Wunderground v.1.15,2013-08-23 04:45:00,
2013-08-23 00:55:00,63.8,60.2,30.05,West,267,1.0,2.0,88,0.00,,,0.00,Wunderground v.1.15,2013-08-23 04:55:00,
2013-08-23 01:05:00,63.7,60.1,30.05,West,267,1.0,1.0,88,0.00,,,0.00,Wunderground v.1.15,2013-08-23 05:05:00,
2013-08-23 01:15:00,63.2,59.6,30.06,West,267,2.0,2.0,88,0.00,,,0.00,Wunderground v.1.15,2013-08-23 05:15:00,
2013-08-23 01:25:00,62.6,59.0,30.06,West,267,2.0,2.0,88,0.00,,,0.00,Wunderground v.1.15,2013-08-23 05:25:00,
2013-08-23 01:30:00,62.3,58.7,30.06,West,267,1.0,2.0,88,0.00,,,0.00,Wunderground v.1.15,2013-08-23 05:30:00,
2013-08-23 01:40:00,62.1,58.5,30.06,West,267,1.0,2.0,88,0.00,,,0.00,Wunderground v.1.15,2013-08-23 05:40:00,
2013-08-23 01:45:00,61.8,57.9,30.06,West,269,2.0,2.0,87,0.00,,,0.00,Wunderground v.1.15,2013-08-23 05:45:00,
2013-08-23 01:55:00,61.3,57.4,30.06,West,269,2.0,3.0,87,0.00,,,0.00,Wunderground v.1.15,2013-08-23 05:55:00,
2013-08-23 02:00:00,61.1,56.9,30.06,West,269,2.0,2.0,86,0.00,,,0.00,Wunderground v.1.15,2013-08-23 06:00:00,
2013-08-23 02:10:00,60.9,56.4,30.06,West,269,2.0,2.0,85,0.00,,,0.00,Wunderground v.1.15,2013-08-23 06:10:00,
2013-08-23 02:20:00,60.6,56.1,30.07,West,269,1.0,1.0,85,0.00,,,0.00,Wunderground v.1.15,2013-08-23 06:20:00,
2013-08-23 02:30:00,60.5,55.6,30.06,West,269,1.0,1.0,84,0.00,,,0.00,Wunderground v.1.15,2013-08-23 06:30:00,
2013-08-23 02:40:00,60.6,56.1,30.07,West,271,1.0,2.0,85,0.00,,,0.00,Wunderground v.1.15,2013-08-23 06:40:00,
2013-08-23 02:50:00,60.9,55.7,30.07,WNW,293,1.0,2.0,83,0.00,,,0.00,Wunderground v.1.15,2013-08-23 06:50:00,
2013-08-23 02:55:00,60.8,55.6,30.07,WNW,293,1.0,2.0,83,0.00,,,0.00,Wunderground v.1.15,2013-08-23 06:55:00,
2013-08-23 03:05:00,60.6,55.4,30.06,West,276,2.0,2.0,83,0.00,,,0.00,Wunderground v.1.15,2013-08-23 07:05:00,
2013-08-23 03:10:00,60.5,55.3,30.06,West,276,1.0,1.0,83,0.00,,,0.00,Wunderground v.1.15,2013-08-23 07:10:00,
2013-08-23 03:20:00,60.3,54.8,30.06,West,276,1.0,1.0,82,0.00,,,0.00,Wunderground v.1.15,2013-08-23 07:20:00,
2013-08-23 03:30:00,60.4,54.5,30.06,West,276,1.0,1.0,81,0.00,,,0.00,Wunderground v.1.15,2013-08-23 07:30:00,
2013-08-23 03:35:00,60.4,54.5,30.06,West,276,1.0,1.0,81,0.00,,,0.00,Wunderground v.1.15,2013-08-23 07:35:00,
2013-08-23 03:45:00,59.6,53.8,30.06,West,276,2.0,3.0,81,0.00,,,0.00,Wunderground v.1.15,2013-08-23 07:45:00,
2013-08-23 03:50:00,59.3,53.8,30.06,West,276,2.0,3.0,82,0.00,,,0.00,Wunderground v.1.15,2013-08-23 07:50:00,
2013-08-23 03:55:00,59.3,54.1,30.07,West,276,2.0,3.0,83,0.00,,,0.00,Wunderground v.1.15,2013-08-23 07:55:00,
2013-08-23 04:05:00,59.1,53.9,30.07,West,276,0.0,1.0,83,0.00,,,0.00,Wunderground v.1.15,2013-08-23 08:05:00,
2013-08-23 04:10:00,59.0,53.8,30.07,West,276,0.0,3.0,83,0.00,,,0.00,Wunderground v.1.15,2013-08-23 08:10:00,
2013-08-23 04:20:00,58.7,53.5,30.07,West,276,1.0,1.0,83,0.00,,,0.00,Wunderground v.1.15,2013-08-23 08:20:00,
2013-08-23 04:25:00,58.6,53.5,30.07,West,276,1.0,2.0,83,0.00,,,0.00,Wunderground v.1.15,2013-08-23 08:25:00,
2013-08-23 04:35:00,58.4,53.3,30.07,West,276,2.0,3.0,83,0.00,,,0.00,Wunderground v.1.15,2013-08-23 08:35:00,
2013-08-23 04:40:00,58.4,52.9,30.07,West,276,2.0,2.0,82,0.00,,,0.00,Wunderground v.1.15,2013-08-23 08:40:00,
2013-08-23 04:50:00,58.2,52.7,30.07,West,276,2.0,2.0,82,0.00,,,0.00,Wunderground v.1.15,2013-08-23 08:50:00,
2013-08-23 04:55:00,57.9,52.4,30.07,West,276,2.0,3.0,82,0.00,,,0.00,Wunderground v.1.15,2013-08-23 08:55:00,
2013-08-23 05:05:00,57.3,52.2,30.07,West,276,2.0,3.0,83,0.00,,,0.00,Wunderground v.1.15,2013-08-23 09:05:00,
2013-08-23 05:15:00,56.8,52.0,30.08,West,276,3.0,3.0,84,0.00,,,0.00,Wunderground v.1.15,2013-08-23 09:15:00,
2013-08-23 05:20:00,56.6,51.5,30.08,West,276,2.0,3.0,83,0.00,,,0.00,Wunderground v.1.15,2013-08-23 09:20:00,
2013-08-23 05:25:00,56.3,51.2,30.08,West,276,2.0,3.0,83,0.00,,,0.00,Wunderground v.1.15,2013-08-23 09:25:00,
2013-08-23 05:35:00,56.0,51.2,30.08,West,276,2.0,3.0,84,0.00,,,0.00,Wunderground v.1.15,2013-08-23 09:35:00,
2013-08-23 05:45:00,55.9,50.8,30.08,West,276,2.0,3.0,83,0.00,,,0.00,Wunderground v.1.15,2013-08-23 09:45:00,
2013-08-23 05:50:00,55.6,50.5,30.08,West,276,2.0,2.0,83,0.00,,,0.00,Wunderground v.1.15,2013-08-23 09:50:00,
2013-08-23 06:00:00,55.6,50.8,30.08,West,276,3.0,3.0,84,0.00,,,0.00,Wunderground v.1.15,2013-08-23 10:00:00,
2013-08-23 06:10:00,55.4,50.3,30.08,West,276,3.0,4.0,83,0.00,,,0.00,Wunderground v.1.15,2013-08-23 10:10:00,
2013-08-23 06:15:00,55.3,50.2,30.09,West,276,3.0,4.0,83,0.00,,,0.00,Wunderground v.1.15,2013-08-23 10:15:00,
2013-08-23 06:25:00,54.9,50.2,30.09,West,276,3.0,3.0,84,0.00,,,0.00,Wunderground v.1.15,2013-08-23 10:25:00,
2013-08-23 06:30:00,54.9,50.2,30.09,West,276,3.0,3.0,84,0.00,,,0.00,Wunderground v.1.15,2013-08-23 10:30:00,
2013-08-23 06:40:00,54.4,49.7,30.09,West,276,2.0,4.0,84,0.00,,,0.00,Wunderground v.1.15,2013-08-23 10:40:00,
2013-08-23 06:45:00,54.3,49.6,30.10,West,276,3.0,4.0,84,0.00,,,0.00,Wunderground v.1.15,2013-08-23 10:45:00,
2013-08-23 06:55:00,54.2,49.8,30.10,West,281,3.0,3.0,85,0.00,,,0.00,Wunderground v.1.15,2013-08-23 10:55:00,
2013-08-23 07:00:00,54.2,49.5,30.10,West,281,3.0,3.0,84,0.00,,,0.00,Wunderground v.1.15,2013-08-23 11:00:00,
2013-08-23 07:10:00,54.0,49.6,30.10,West,281,2.0,3.0,85,0.00,,,0.00,Wunderground v.1.15,2013-08-23 11:10:00,
2013-08-23 07:15:00,54.2,49.8,30.10,West,281,2.0,3.0,85,0.00,,,0.00,Wunderground v.1.15,2013-08-23 11:15:00,
2013-08-23 07:25:00,54.4,49.7,30.11,West,281,2.0,2.0,84,0.00,,,0.00,Wunderground v.1.15,2013-08-23 11:25:00,
2013-08-23 07:35:00,54.2,49.8,30.11,West,281,2.0,2.0,85,0.00,,,0.00,Wunderground v.1.15,2013-08-23 11:35:00,
2013-08-23 07:45:00,54.5,50.1,30.12,West,281,2.0,3.0,85,0.00,,,0.00,Wunderground v.1.15,2013-08-23 11:45:00,
2013-08-23 07:50:00,54.7,50.3,30.12,NW,304,2.0,2.0,85,0.00,,,0.00,Wunderground v.1.15,2013-08-23 11:50:00,
2013-08-23 07:55:00,54.9,50.5,30.12,NW,304,2.0,2.0,85,0.00,,,0.00,Wunderground v.1.15,2013-08-23 11:55:00,
2013-08-23 08:00:00,55.1,51.0,30.12,NW,304,2.0,2.0,86,0.00,,,0.00,Wunderground v.1.15,2013-08-23 12:00:00,
2013-08-23 08:10:00,55.5,51.4,30.12,NW,304,2.0,2.0,86,0.00,,,0.00,Wunderground v.1.15,2013-08-23 12:10:00,
2013-08-23 08:20:00,56.1,52.0,30.12,NW,309,3.0,4.0,86,0.00,,,0.00,Wunderground v.1.15,2013-08-23 12:20:00,
2013-08-23 08:25:00,56.4,52.3,30.12,WNW,302,3.0,4.0,86,0.00,,,0.00,Wunderground v.1.15,2013-08-23 12:25:00,
2013-08-23 08:35:00,57.1,52.6,30.12,NNW,342,4.0,5.0,85,0.00,,,0.00,Wunderground v.1.15,2013-08-23 12:35:00,
2013-08-23 08:45:00,57.9,53.7,30.13,NNW,340,2.0,4.0,86,0.00,,,0.00,Wunderground v.1.15,2013-08-23 12:45:00,
2013-08-23 08:50:00,58.4,53.9,30.13,NNW,348,3.0,4.0,85,0.00,,,0.00,Wunderground v.1.15,2013-08-23 12:50:00,
2013-08-23 09:00:00,59.5,54.3,30.13,North,360,3.0,8.0,83,0.00,,,0.00,Wunderground v.1.15,2013-08-23 13:00:00,
2013-08-23 09:10:00,60.3,54.8,30.13,North,351,4.0,5.0,82,0.00,,,0.00,Wunderground v.1.15,2013-08-23 13:10:00,
2013-08-23 09:20:00,61.2,55.0,30.13,NNE,22,5.0,5.0,80,0.00,,,0.00,Wunderground v.1.15,2013-08-23 13:20:00,
2013-08-23 09:30:00,62.0,55.4,30.14,NNE,15,4.0,5.0,79,0.00,,,0.00,Wunderground v.1.15,2013-08-23 13:30:00,
2013-08-23 09:35:00,62.5,56.6,30.14,NNW,333,4.0,5.0,81,0.00,,,0.00,Wunderground v.1.15,2013-08-23 13:35:00,
2013-08-23 09:45:00,63.2,56.6,30.14,NNE,30,4.0,5.0,79,0.00,,,0.00,Wunderground v.1.15,2013-08-23 13:45:00,
2013-08-23 09:55:00,63.9,56.5,30.14,NNE,23,4.0,5.0,77,0.00,,,0.00,Wunderground v.1.15,2013-08-23 13:55:00,
2013-08-23 10:05:00,64.7,57.0,30.14,North,360,4.0,5.0,76,0.00,,,0.00,Wunderground v.1.15,2013-08-23 14:05:00,
2013-08-23 10:15:00,65.6,58.2,30.14,NNE,17,4.0,6.0,77,0.00,,,0.00,Wunderground v.1.15,2013-08-23 14:15:00,
2013-08-23 10:20:00,66.0,57.5,30.14,NNE,30,4.0,4.0,74,0.00,,,0.00,Wunderground v.1.15,2013-08-23 14:20:00,
2013-08-23 10:30:00,67.0,58.4,30.14,NNE,23,3.0,5.0,74,0.00,,,0.00,Wunderground v.1.15,2013-08-23 14:30:00,
2013-08-23 10:40:00,67.7,58.7,30.14,NNE,15,3.0,5.0,73,0.00,,,0.00,Wunderground v.1.15,2013-08-23 14:40:00,
2013-08-23 10:45:00,68.0,58.6,30.15,NNE,27,3.0,5.0,72,0.00,,,0.00,Wunderground v.1.15,2013-08-23 14:45:00,
2013-08-23 10:50:00,68.3,58.5,30.14,NE,46,3.0,4.0,71,0.00,,,0.00,Wunderground v.1.15,2013-08-23 14:50:00,
2013-08-23 10:55:00,68.7,58.9,30.14,North,9,3.0,4.0,71,0.00,,,0.00,Wunderground v.1.15,2013-08-23 14:55:00,
2013-08-23 11:05:00,69.9,60.1,30.14,NW,318,3.0,5.0,71,0.00,,,0.00,Wunderground v.1.15,2013-08-23 15:05:00,
2013-08-23 11:10:00,70.3,59.6,30.14,North,350,3.0,6.0,69,0.00,,,0.00,Wunderground v.1.15,2013-08-23 15:10:00,
2013-08-23 11:20:00,70.7,59.6,30.14,NE,38,4.0,4.0,68,0.00,,,0.00,Wunderground v.1.15,2013-08-23 15:20:00,
2013-08-23 11:25:00,71.1,59.6,30.15,NW,326,3.0,5.0,67,0.00,,,0.00,Wunderground v.1.15,2013-08-23 15:25:00,
2013-08-23 11:30:00,71.3,58.9,30.14,NE,35,4.0,6.0,65,0.00,,,0.00,Wunderground v.1.15,2013-08-23 15:30:00,
2013-08-23 11:40:00,71.7,60.2,30.14,NNW,331,4.0,7.0,67,0.00,,,0.00,Wunderground v.1.15,2013-08-23 15:40:00,
2013-08-23 11:50:00,72.3,59.9,30.15,NE,36,5.0,6.0,65,0.00,,,0.00,Wunderground v.1.15,2013-08-23 15:50:00,
2013-08-23 11:55:00,72.6,60.2,30.15,North,5,5.0,6.0,65,0.00,,,0.00,Wunderground v.1.15,2013-08-23 15:55:00,
2013-08-23 12:00:00,72.9,59.6,30.15,NE,51,3.0,5.0,63,0.00,,,0.00,Wunderground v.1.15,2013-08-23 16:00:00,
2013-08-23 12:10:00,73.2,58.5,30.15,North,5,6.0,6.0,60,0.00,,,0.00,Wunderground v.1.15,2013-08-23 16:10:00,
2013-08-23 12:15:00,73.5,59.7,30.14,NW,326,4.0,6.0,62,0.00,,,0.00,Wunderground v.1.15,2013-08-23 16:15:00,
2013-08-23 12:20:00,73.7,60.3,30.14,NNW,333,4.0,4.0,63,0.00,,,0.00,Wunderground v.1.15,2013-08-23 16:20:00,
2013-08-23 12:30:00,74.2,59.4,30.14,NNW,337,4.0,4.0,60,0.00,,,0.00,Wunderground v.1.15,2013-08-23 16:30:00,
2013-08-23 12:35:00,74.3,59.0,30.14,NNE,16,5.0,9.0,59,0.00,,,0.00,Wunderground v.1.15,2013-08-23 16:35:00,
2013-08-23 12:40:00,74.6,57.4,30.14,ENE,63,6.0,8.0,55,0.00,,,0.00,Wunderground v.1.15,2013-08-23 16:40:00,
2013-08-23 12:50:00,74.9,58.1,30.14,East,94,7.0,7.0,56,0.00,,,0.00,Wunderground v.1.15,2013-08-23 16:50:00,
2013-08-23 12:55:00,75.4,57.6,30.14,ENE,76,7.0,8.0,54,0.00,,,0.00,Wunderground v.1.15,2013-08-23 16:55:00,
2013-08-23 13:00:00,75.1,56.8,30.13,NE,45,7.0,7.0,53,0.00,,,0.00,Wunderground v.1.15,2013-08-23 17:00:00,
2013-08-23 13:10:00,76.0,59.2,30.13,NNE,24,7.0,7.0,56,0.00,,,0.00,Wunderground v.1.15,2013-08-23 17:10:00,
2013-08-23 13:15:00,76.0,57.6,30.13,NNE,30,6.0,11.0,53,0.00,,,0.00,Wunderground v.1.15,2013-08-23 17:15:00,
2013-08-23 13:20:00,76.1,57.7,30.13,North,11,6.0,6.0,53,0.00,,,0.00,Wunderground v.1.15,2013-08-23 17:20:00,
2013-08-23 13:30:00,76.3,60.4,30.12,North,5,4.0,9.0,58,0.00,,,0.00,Wunderground v.1.15,2013-08-23 17:30:00,
2013-08-23 13:35:00,76.6,59.2,30.13,NNE,30,6.0,11.0,55,0.00,,,0.00,Wunderground v.1.15,2013-08-23 17:35:00,
2013-08-23 13:45:00,76.7,59.3,30.13,ENE,71,8.0,8.0,55,0.00,,,0.00,Wunderground v.1.15,2013-08-23 17:45:00,
2013-08-23 13:50:00,76.6,58.7,30.13,East,93,7.0,9.0,54,0.00,,,0.00,Wunderground v.1.15,2013-08-23 17:50:00,
2013-08-23 14:00:00,76.0,57.6,30.13,East,90,10.0,10.0,53,0.00,,,0.00,Wunderground v.1.15,2013-08-23 18:00:00,
2013-08-23 14:05:00,75.8,56.9,30.13,NE,52,8.0,10.0,52,0.00,,,0.00,Wunderground v.1.15,2013-08-23 18:05:00,
2013-08-23 14:15:00,76.1,57.7,30.13,East,84,6.0,8.0,53,0.00,,,0.00,Wunderground v.1.15,2013-08-23 18:15:00,
2013-08-23 14:25:00,76.6,56.0,30.13,ENE,62,7.0,10.0,49,0.00,,,0.00,Wunderground v.1.15,2013-08-23 18:25:00,
2013-08-23 14:30:00,77.0,56.9,30.12,NNE,29,6.0,9.0,50,0.00,,,0.00,Wunderground v.1.15,2013-08-23 18:30:00,
2013-08-23 14:35:00,76.9,56.8,30.12,East,88,6.0,9.0,50,0.00,,,0.00,Wunderground v.1.15,2013-08-23 18:35:00,
2013-08-23 14:45:00,77.2,56.0,30.13,East,95,7.0,7.0,48,0.00,,,0.00,Wunderground v.1.15,2013-08-23 18:45:00,
2013-08-23 14:50:00,77.2,55.4,30.13,NE,52,7.0,7.0,47,0.00,,,0.00,Wunderground v.1.15,2013-08-23 18:50:00,
2013-08-23 15:00:00,77.4,55.0,30.13,East,92,6.0,6.0,46,0.00,,,0.00,Wunderground v.1.15,2013-08-23 19:00:00,
2013-08-23 15:10:00,77.5,56.3,30.12,NNE,28,4.0,9.0,48,0.00,,,0.00,Wunderground v.1.15,2013-08-23 19:10:00,
2013-08-23 15:15:00,78.1,55.0,30.12,ENE,59,6.0,10.0,45,0.00,,,0.00,Wunderground v.1.15,2013-08-23 19:15:00,
2013-08-23 15:25:00,77.1,53.5,30.12,East,79,6.0,8.0,44,0.00,,,0.00,Wunderground v.1.15,2013-08-23 19:25:00,
2013-08-23 15:35:00,77.5,53.9,30.12,NE,49,7.0,10.0,44,0.00,,,0.00,Wunderground v.1.15,2013-08-23 19:35:00,
2013-08-23 15:45:00,77.7,52.1,30.11,NE,34,5.0,9.0,41,0.00,,,0.00,Wunderground v.1.15,2013-08-23 19:45:00,
2013-08-23 15:50:00,77.8,52.9,30.11,ESE,103,4.0,8.0,42,0.00,,,0.00,Wunderground v.1.15,2013-08-23 19:50:00,
2013-08-23 16:00:00,78.1,53.8,30.11,NE,36,5.0,5.0,43,0.00,,,0.00,Wunderground v.1.15,2013-08-23 20:00:00,
2013-08-23 16:10:00,78.3,53.3,30.11,East,88,5.0,5.0,42,0.00,,,0.00,Wunderground v.1.15,2013-08-23 20:10:00,
2013-08-23 16:15:00,78.2,53.9,30.11,East,82,4.0,7.0,43,0.00,,,0.00,Wunderground v.1.15,2013-08-23 20:15:00,
2013-08-23 16:20:00,78.2,52.6,30.11,East,98,6.0,7.0,41,0.00,,,0.00,Wunderground v.1.15,2013-08-23 20:20:00,
2013-08-23 16:30:00,77.9,52.3,30.11,ENE,72,4.0,4.0,41,0.00,,,0.00,Wunderground v.1.15,2013-08-23 20:30:00,
2013-08-23 16:40:00,78.4,52.7,30.11,ENE,71,6.0,6.0,41,0.00,,,0.00,Wunderground v.1.15,2013-08-23 20:40:00,
2013-08-23 16:50:00,78.4,53.4,30.11,East,86,4.0,6.0,42,0.00,,,0.00,Wunderground v.1.15,2013-08-23 20:50:00,
2013-08-23 17:00:00,78.6,52.9,30.10,NE,47,7.0,7.0,41,0.00,,,0.00,Wunderground v.1.15,2013-08-23 21:00:00,
2013-08-23 17:05:00,78.5,53.5,30.11,NE,53,5.0,7.0,42,0.00,,,0.00,Wunderground v.1.15,2013-08-23 21:05:00,
2013-08-23 17:10:00,78.6,54.2,30.11,East,79,5.0,7.0,43,0.00,,,0.00,Wunderground v.1.15,2013-08-23 21:10:00,
2013-08-23 17:20:00,78.4,54.0,30.11,NE,49,5.0,6.0,43,0.00,,,0.00,Wunderground v.1.15,2013-08-23 21:20:00,
2013-08-23 17:30:00,78.5,54.1,30.10,NE,53,5.0,10.0,43,0.00,,,0.00,Wunderground v.1.15,2013-08-23 21:30:00,
2013-08-23 17:35:00,78.4,54.7,30.11,ENE,63,5.0,10.0,44,0.00,,,0.00,Wunderground v.1.15,2013-08-23 21:35:00,
2013-08-23 17:45:00,78.0,54.3,30.10,East,94,7.0,9.0,44,0.00,,,0.00,Wunderground v.1.15,2013-08-23 21:45:00,
2013-08-23 17:50:00,77.9,54.2,30.11,ENE,65,7.0,7.0,44,0.00,,,0.00,Wunderground v.1.15,2013-08-23 21:50:00,
2013-08-23 18:00:00,77.6,54.0,30.11,NE,56,6.0,6.0,44,0.00,,,0.00,Wunderground v.1.15,2013-08-23 22:00:00,
2013-08-23 18:10:00,77.6,55.2,30.11,ENE,71,5.0,5.0,46,0.00,,,0.00,Wunderground v.1.15,2013-08-23 22:10:00,
2013-08-23 18:20:00,77.1,57.6,30.11,ENE,74,7.0,7.0,51,0.00,,,0.00,Wunderground v.1.15,2013-08-23 22:20:00,
2013-08-23 18:30:00,76.8,58.4,30.11,ENE,77,7.0,8.0,53,0.00,,,0.00,Wunderground v.1.15,2013-08-23 22:30:00,
2013-08-23 18:40:00,76.2,58.3,30.11,NE,55,7.0,7.0,54,0.00,,,0.00,Wunderground v.1.15,2013-08-23 22:40:00,
2013-08-23 18:50:00,75.9,58.1,30.11,East,81,6.0,9.0,54,0.00,,,0.00,Wunderground v.1.15,2013-08-23 22:50:00,
2013-08-23 18:55:00,75.7,57.9,30.11,NE,38,6.0,9.0,54,0.00,,,0.00,Wunderground v.1.15,2013-08-23 22:55:00,
2013-08-23 19:00:00,75.7,57.9,30.11,ENE,64,6.0,6.0,54,0.00,,,0.00,Wunderground v.1.15,2013-08-23 23:00:00,
2013-08-23 19:10:00,75.5,57.7,30.11,East,83,5.0,5.0,54,0.00,,,0.00,Wunderground v.1.15,2013-08-23 23:10:00,
2013-08-23 19:15:00,75.2,57.4,30.11,NE,37,5.0,5.0,54,0.00,,,0.00,Wunderground v.1.15,2013-08-23 23:15:00,
2013-08-23 19:20:00,75.0,57.2,30.11,NE,41,5.0,9.0,54,0.00,,,0.00,Wunderground v.1.15,2013-08-23 23:20:00,
2013-08-23 19:25:00,74.8,57.0,30.11,East,95,5.0,9.0,54,0.00,,,0.00,Wunderground v.1.15,2013-08-23 23:25:00,
2013-08-23 19:35:00,74.4,57.7,30.12,ENE,57,5.0,6.0,56,0.00,,,0.00,Wunderground v.1.15,2013-08-23 23:35:00,
2013-08-23 19:45:00,74.0,57.3,30.11,East,81,5.0,5.0,56,0.00,,,0.00,Wunderground v.1.15,2013-08-23 23:45:00,
2013-08-23 19:50:00,73.7,57.5,30.11,East,79,5.0,5.0,57,0.00,,,0.00,Wunderground v.1.15,2013-08-23 23:50:00,
2013-08-23 20:00:00,73.1,57.9,30.11,East,86,4.0,4.0,59,0.00,,,0.00,Wunderground v.1.15,2013-08-24 00:00:00,
2013-08-23 20:10:00,72.3,58.5,30.12,ENE,71,3.0,3.0,62,0.00,,,0.00,Wunderground v.1.15,2013-08-24 00:10:00,
2013-08-23 20:15:00,71.8,58.5,30.12,ENE,75,2.0,3.0,63,0.00,,,0.00,Wunderground v.1.15,2013-08-24 00:15:00,
2013-08-23 20:25:00,70.8,58.9,30.12,ENE,67,3.0,5.0,66,0.00,,,0.00,Wunderground v.1.15,2013-08-24 00:25:00,
2013-08-23 20:30:00,70.4,58.5,30.12,NE,37,3.0,3.0,66,0.00,,,0.00,Wunderground v.1.15,2013-08-24 00:30:00,
2013-08-23 20:40:00,69.7,58.7,30.12,East,91,2.0,2.0,68,0.00,,,0.00,Wunderground v.1.15,2013-08-24 00:40:00,
2013-08-23 20:50:00,69.0,58.4,30.13,ENE,78,2.0,2.0,69,0.00,,,0.00,Wunderground v.1.15,2013-08-24 00:50:00,
2013-08-23 20:55:00,68.5,58.7,30.13,NE,50,2.0,3.0,71,0.00,,,0.00,Wunderground v.1.15,2013-08-24 00:55:00,
2013-08-23 21:00:00,68.2,58.4,30.13,East,86,2.0,2.0,71,0.00,,,0.00,Wunderground v.1.15,2013-08-24 01:00:00,
2013-08-23 21:10:00,67.9,58.9,30.13,NE,55,3.0,5.0,73,0.00,,,0.00,Wunderground v.1.15,2013-08-24 01:10:00,
2013-08-23 21:20:00,67.6,59.0,30.14,East,88,3.0,3.0,74,0.00,,,0.00,Wunderground v.1.15,2013-08-24 01:20:00,
2013-08-23 21:25:00,67.4,58.8,30.14,East,86,2.0,3.0,74,0.00,,,0.00,Wunderground v.1.15,2013-08-24 01:25:00,
2013-08-23 21:30:00,67.1,58.9,30.14,ENE,62,2.0,2.0,75,0.00,,,0.00,Wunderground v.1.15,2013-08-24 01:30:00,
2013-08-23 21:40:00,66.8,59.0,30.14,East,82,2.0,2.0,76,0.00,,,0.00,Wunderground v.1.15,2013-08-24 01:40:00,
2013-08-23 21:50:00,66.3,58.5,30.15,ENE,68,1.0,1.0,76,0.00,,,0.00,Wunderground v.1.15,2013-08-24 01:50:00,
2013-08-23 21:55:00,66.0,58.6,30.15,ENE,68,1.0,1.0,77,0.00,,,0.00,Wunderground v.1.15,2013-08-24 01:55:00,
2013-08-23 22:01:00,65.9,58.8,30.15,East,79,1.0,3.0,78,0.00,,,0.00,Wunderground v.1.15,2013-08-24 02:01:00,
2013-08-23 22:10:00,65.9,58.5,30.15,ENE,69,3.0,4.0,77,0.00,,,0.00,Wunderground v.1.15,2013-08-24 02:10:00,
2013-08-23 22:15:00,66.1,58.3,30.15,East,97,3.0,5.0,76,0.00,,,0.00,Wunderground v.1.15,2013-08-24 02:15:00,
2013-08-23 22:25:00,66.1,58.3,30.15,East,94,4.0,5.0,76,0.00,,,0.00,Wunderground v.1.15,2013-08-24 02:25:00,
2013-08-23 22:30:00,66.0,58.6,30.15,East,84,4.0,4.0,77,0.00,,,0.00,Wunderground v.1.15,2013-08-24 02:30:00,
2013-08-23 22:40:00,65.6,58.2,30.16,East,92,3.0,3.0,77,0.00,,,0.00,Wunderground v.1.15,2013-08-24 02:40:00,
2013-08-23 22:45:00,65.4,58.4,30.16,East,86,3.0,3.0,78,0.00,,,0.00,Wunderground v.1.15,2013-08-24 02:45:00,
2013-08-23 22:55:00,65.2,58.2,30.16,East,88,3.0,3.0,78,0.00,,,0.00,Wunderground v.1.15,2013-08-24 02:55:00,
2013-08-23 23:00:00,65.0,58.0,30.16,ENE,66,3.0,4.0,78,0.00,,,0.00,Wunderground v.1.15,2013-08-24 03:00:00,
2013-08-23 23:10:00,64.7,58.0,30.16,East,92,2.0,2.0,79,0.00,,,0.00,Wunderground v.1.15,2013-08-24 03:10:00,
2013-08-23 23:15:00,64.5,57.8,30.16,East,96,2.0,2.0,79,0.00,,,0.00,Wunderground v.1.15,2013-08-24 03:15:00,
2013-08-23 23:20:00,64.4,57.7,30.17,East,94,3.0,5.0,79,0.00,,,0.00,Wunderground v.1.15,2013-08-24 03:20:00,
2013-08-23 23:30:00,64.2,57.5,30.16,East,101,2.0,4.0,79,0.00,,,0.00,Wunderground v.1.15,2013-08-24 03:30:00,
2013-08-23 23:40:00,63.9,56.9,30.16,SE,135,2.0,3.0,78,0.00,,,0.00,Wunderground v.1.15,2013-08-24 03:40:00,
2013-08-23 23:45:00,63.8,56.8,30.16,SE,134,3.0,3.0,78,0.00,,,0.00,Wunderground v.1.15,2013-08-24 03:45:00,
2013-08-23 23:55:00,63.3,56.7,30.16,SE,140,3.0,4.0,79,0.00,,,0.00,Wunderground v.1.15,2013-08-24 03:55:00,